Regional Weather Roundup
Issued by NWS Newport/Morehead, NC

Current Version | Previous Version | Text Only | Print | Product List | Glossary On
Versions: 1 2 3 4 5 6 7 8 9 10 11 12 13 14 15 16 17 18 19 20 21 22 23 24 25 26 27 28 29 30 31 32 33 34 35 36 37 38 39 40 41 42 43 44 45 46 47 48 49 50
000 ASUS42 KMHX 251413 RWRMHX WEATHER ROUNDUP FOR EASTERN NORTH CAROLINA NATIONAL WEATHER SERVICE NEWPORT/MOREHEAD CITY NC 1000 AM EDT THU MAY 25 2017 NOTE: "FAIR" INDICATES FEW OR NO CLOUDS BELOW 12,000 FEET WITH NO SIGNIFICANT WEATHER AND/OR OBSTRUCTIONS TO VISIBILITY NCZ015>017-031-032-045>047-102-103-251500- NORTH COAST CITY SKY/WX TMP DP RH WIND PRES REMARKS EDENTON PTSUNNY 75 69 83 SW13G18 29.57S ELIZABETH CITY CLOUDY 75 71 87 S16 29.56S KITTY HAWK PTSUNNY 74 70 89 CALM 29.57F MANTEO CLOUDY 74 68 81 SW13 29.59S $$ NCZ045>047-081-094-103-104-251500- CENTRAL COAST CITY SKY/WX TMP DP RH WIND PRES REMARKS FRISCO NOT AVBL $$ NCZ095-097-098-100-101-251500- SOUTHERN COAST CITY SKY/WX TMP DP RH WIND PRES REMARKS BEAUFORT PTSUNNY 76 68 76 SW24G32 29.61R CEDAR ISLAND NOT AVBL JACKSONVILLE MOSUNNY 74 64 71 SW13G24 29.61R PINEY ISLAND PTSUNNY N/A N/A N/A SW23G33 29.60R WILMINGTON MOSUNNY 75 60 59 SW22G30 29.63R $$ NCZ011>013-027>030-043-044-078>080-089-090>093-098-251500- COASTAL PLAIN CITY SKY/WX TMP DP RH WIND PRES REMARKS AHOSKIE N/A 72 64 76 CALM 29.56S CLINTON MOSUNNY 72 64 76 SW12G21 29.61R ELIZABETHTOWN MOSUNNY 71 60 69 SW10G21 29.62R GOLDSBORO MOSUNNY 74 66 76 SW20G25 29.56S GREENVILLE MOSUNNY 73 68 83 SW9 29.60S HAVELOCK PTSUNNY 78 64 61 SW21G29 29.61R KENANSVILLE MOSUNNY 72 63 73 SW16 29.59S KINSTON MOSUNNY 73 63 68 SW13G18 29.58S NEW BERN MOSUNNY 75 65 70 SW16G24 29.61R RICHLANDS MOSUNNY 74 65 73 SW13G18 29.62R ROCKY MOUNT PTSUNNY 70 64 81 SW13 29.57R WASHINGTON PTSUNNY 73 66 80 SW13G18 29.57S WHITEVILLE PTSUNNY 71 61 70 SW13G22 29.64R $$ AMZ130-135-150-152-154-156-158-170-250-252-270-ANZ085-086-088-633-658-670-251500- MARINE OBSERVATIONS STATION/POSITION TIME TEMP WIND PRES WAVE SWELL AIR SEA DIR/SP/G HT/PER HT/PER (UTC) (F) (DEG/KT/KT) (MB) (FT/S) (FT/S) CHESAPEAKE LIGHT NOT AVBL 64 E VA BEACH 1350 68 65 200/ 16/ 17 1002.2 6/ 7 3/ 8 DUCK 1348 73 63 190/ 16/ 20 1000.9 2 E DUCK 1400 65 N/A 4/ 8 OREGON INLET 1342 73 69 210/ 11/ 16 1001.9 13E OREGON INLT 1348 65 N/A 5/ 7 3/ 7 HATTERAS CG 1348 76 73 210/ 11/ 18 1002.6 DIAMOND BUOY 1350 77 78 230/ 19/ 23 1002.8 8/ 7 CAPE LOOKOUT 1400 76 220/ 18/ 24 1002.5 BEAUFORT LAB 1348 76 72 220/ 11/ 18 1002.0 30 SE NEW RVR IN 1308 75 75 240/ 27/ 33 1002.6 30 SE NEW RVR IN 1343 75 N/A 11/ 9 2/11 27 SE WRIGHTSVLE 1308 73 75 230/ 23/ 31 1002.6 5 SE WRIGHTSVLE 1308 73 74 240/ 21/ 29 1002.3 225 S CAPE HAT 1350 77 76 200/ 23/ 27 1009.3 10/ 8 41 SE CHARLESTON 1350 73 76 250/ 21/ 25 1005.9 7/ 7 $$

USA.gov is the U.S. government's official web portal to all federal, state and local government web resources and services.